Location: De Har
(53.3413°N, 6.6858°E)
Time: 08:11:42
(UTC+00:00)

ISS - Pass Details

Date: 22 April 2026
Orbit: 414 x 424 km, 51.6° (Epoch: 15 May)

Event Time Altitude Azimuth Distance (km) Brightness Sun altitude
Exits shadow 03:29:57 - 211° (SSW) 1,703 -1.2 -7.3°
Reaches altitude 10° 03:30:32 10° 206° (SSW) 1,496 -1.5 -7.2°
Maximum altitude 03:33:19 24° 150° (SSE) 916 -2.0 -6.9°
Drops below altitude 10° 03:36:06 10° 94° (E) 1,508 0.0 -6.5°
Sets 03:38:27 0° 81° (E) 2,378 1.6 -6.2°
